Flag for U.S.A. Weather past 2 weeks in Atlanta, Georgia, U.S.A.

Now
52 °F

Low clouds.


Feels Like: 52 °F
Forecast: 47 / 60 °F
Wind: No wind

Location: Fulton County Airport-Brown Field

Current Time: Mar 2, 2015 at 10:27:06 AM

Latest Report: Mar 2, 2015 at 9:53 AM


Visibility: 8 mi

Pressure: 30.34 "Hg

Humidity: 86%

Dew point: 48 °F

Location of AtlantaLocation

Historic Weather in Atlanta — Graph

°F

Atlanta temperature yesterday

Maximum temperature yesterday: 47 °F (at 4:53 PM)
Minimum temperature yesterday: 37 °F (at 7:53 AM)
Average temperature yesterday: 42 °F

Past Weeks' High & Low Weather Summary

 TemperatureHumidityPressure
High54 °F (Feb 22, 3:53 PM)97% (Feb 22, 3:53 AM)30.60 "Hg (Feb 22, 3:53 AM)
Low14 °F (Feb 19, 7:53 AM)17% (Feb 15, 2:53 PM)29.70 "Hg (Feb 26, 1:53 AM)
Average36 °F66%30.19 "Hg
* Reported Feb 15 8:53 AM — Mar 2 8:53 AM, Atlanta, Weather by CustomWeather, © 2015

Note: Actual official high and low records may vary slightly from our data, if they occured in-between our weather recording intervals... More about our weather records

Advertising

Atlanta weather history for previous 24 hours

 ConditionsComfort  
Time TempWeatherWind HumidityBarometerVisibility
8:53 AM
Mon, Mar 2
49 °FFog.No wind90%30.32 "Hg5 mi
7:53 AM47 °FFog.No wind93%30.32 "Hg2 mi
6:53 AM46 °FFog.No wind93%30.31 "Hg2 mi
5:53 AM45 °FFog.No wind97%30.29 "Hg2 mi
4:53 AM45 °FFog.3 mph93%30.29 "Hg1 mi
3:53 AM45 °FFog.No wind93%30.29 "Hg0 mi
2:53 AM45 °FFog.No wind93%30.32 "Hg3 mi
1:53 AM45 °FFog.3 mph93%30.34 "Hg4 mi
12:53 AM45 °FFog.3 mph93%30.35 "Hg4 mi
11:53 PM
Sun, Mar 1
46 °FFog.No wind89%30.36 "Hg5 mi
10:53 PM46 °FFog.No wind86%30.38 "Hg6 mi
9:53 PM46 °FFog.No wind89%30.38 "Hg6 mi
8:53 PM46 °FFog.3 mph89%30.37 "Hg5 mi
7:53 PM46 °FFog.5 mph89%30.37 "Hg6 mi
6:53 PM46 °FLow clouds.No wind86%30.38 "Hg7 mi
5:53 PM47 °FLow clouds.No wind80%30.40 "Hg8 mi
4:53 PM47 °FLow clouds.No wind80%30.40 "Hg8 mi
3:53 PM45 °FLow clouds.No wind86%30.40 "Hg7 mi
2:53 PM45 °FLow clouds.3 mph82%30.40 "Hg9 mi
1:53 PM43 °FLow clouds.6 mph86%30.41 "Hg9 mi
12:53 PM42 °FLow clouds.8 mph85%30.45 "Hg9 mi
11:53 AM41 °FLow clouds.6 mph86%30.48 "Hg9 mi
10:53 AM39 °FFog.5 mph89%30.50 "Hg5 mi
Weather by CustomWeather, © 2015

See weather overviewHow to use our weather pages